Location: London
(51.5074°N, 0.1278°W)
Time: 21:46:55
(UTC+01:00)

DELFI C3 - Pass Details

Date: 02 October 2020
Orbit: 535 x 549 km, 97.4° (Epoch: 22 October)

Event Time Altitude Azimuth Distance (km) Brightness Sun altitude
Exits shadow 21:22:37 25° 231° (SW) 1,118 ? -26.0°
Maximum altitude 21:23:50 31° 265° (W) 983 ? -26.2°
Drops below altitude 10° 21:27:23 10° 328° (NNW) 1,830 ? -26.7°
Sets 21:29:43 0° 339° (NNW) 2,731 ? -27.0°
